User: anonymous   Login
Location: Unspecified
(0.0000°N, 0.0000°E)
Time: 05:33:21
(UTC+00:00)
Language:

PAYLOAD H - Orbit

View from above orbital plane
View from above orbital plane
View from above satellite
View from above satellite

Ground track
Ground track

The orbit data is extracted from the following two-line orbital elements,

1 27847U 03031H   19083.01643927  .00000006  00000-0  22610-4 0  9999
2 27847  98.6855  90.9784 0008198 254.3601 105.6672 14.22148892816064
Epoch (UTC): 24 March 2019 00:23:40
Eccentricity: 0.0008198
inclination: 98.6855°
perigee height: 812 km
apogee height: 824 km
right ascension of ascending node: 90.9784°
argument of perigee: 254.3601°
revolutions per day: 14.22148892
mean anomaly at epoch: 105.6672°
orbit number at epoch: 81606

The dashed part of the orbit path shows where the satellite is in the earth's shadow,  

DLR